Current weather by "City, St" or "zip code"  
 

Current Conditions: De Ridder, Beauregard Parish Airport, LA

Partly Cloudy


58.0 F

Last Updated on Oct 29 2020, 3:55 pm CDT
Humidity: 51%
Wind Speed: NW 12.7 G 18.4 mph
Barometer 30.03 in
Dewpoint: 39.4 F
Visibility: 10.00 mi
Precip: --
Heat Index: NA
Wind Chill: 55 F
Current conditions at:

De Ridder, Beauregard Parish Airport, LA (KDRI)

Lat: 30.83167 Lon: 93.33972

Local Radar Image active severe weather and emergency alerts image image weather storm and storm spotter reports image weather observation monitoring service image
Local
Radar
Active
Alerts
Storm Reports Obs
Monitoring

Sign-up For Email & Text Message Weather Alert Notification Services



Advertise Here

Observation History for De Ridder, Beauregard Parish Airport, LA


Time Wind
(mph)
Vis
(mi)
Weather Precip (in) Temperature (F) Relative
Humidity
Wind
Chill
(F)
Heat
Index
(F)
Pressure
Air Dwpt altimeter
(in)
sea level
(mb)
Rmks
3:55 pm CDT NW 12.7 G 18.4 10.00 Partly Cloudy -- 58.0 39.4 51% 55 NA 30.03 M
2:55 pm CDT W 15.0 G 19.6 10.00 Fair -- 60.0 39.4 47% 57 NA 30.01 M
1:55 pm CDT W 15.0 G 25.3 10.00 Partly Cloudy -- 58.0 38.8 49% 55 NA 30.03 M
12:55 pm CDT NW 13.8 10.00 Mostly Cloudy -- 56.0 38.5 51% 53 NA 30.04 M
11:55 am CDT NW 16.1 G 20.7 10.00 Mostly Cloudy -- 56.0 38.8 53% 52 NA 30.03 M
10:55 am CDT W 18.4 G 21.9 10.00 Partly Cloudy -- 53.0 39.0 58% 48 NA 30.02 M
9:55 am CDT W 11.5 G 21.9 10.00 Fair -- 50.0 41.7 72% 46 NA 30.00 M
8:55 am CDT SW 6.9 G 17.3 10.00 Mostly Cloudy -- 45.0 42.1 90% 41 NA 29.98 M
7:55 am CDT SW 4.6 10.00 Partly Cloudy -- 42.0 41.0 95% 39 NA 29.95 M
6:55 am CDT N 0.0 10.00 Mostly Cloudy -- 43.0 41.5 95% NA NA 29.94 M
5:55 am CDT SW 4.6 10.00 Partly Cloudy -- 43.0 41.9 95% 40 NA 29.94 M
4:55 am CDT SW 3.5 10.00 Fair -- 44.0 42.1 93% NA NA 29.92 M
3:55 am CDT W 4.6 10.00 Fair -- 45.0 41.9 90% 43 NA 29.91 M
2:55 am CDT W 6.9 10.00 Fair -- 46.0 40.8 82% 42 NA 29.91 M
1:15 am CDT W 12.7 G 21.9 10.00 Mostly Cloudy -- 49.0 43.9 84% 44 NA 29.91 M
12:55 am CDT W 16.1 G 19.6 10.00 Overcast -- 49.0 44.2 85% 43 NA 29.90 M
11:55 pm CDT W 15.0 G 20.7 10.00 Overcast -- 51.0 48.7 93% 46 NA 29.87 M
10:55 pm CDT W 11.5 G 19.6 10.00 Overcast -- 52.0 49.5 91% 48 NA 29.85 M
9:55 pm CDT W 12.7 10.00 Overcast -- 54.0 52.0 93% 50 NA 29.82 M
8:55 pm CDT W 9.2 G 17.3 10.00 Overcast -- 55.0 54.0 95% 52 NA 29.79 M
7:55 pm CDT W 12.7 10.00 Overcast -- 57.0 56.1 96% 54 NA 29.77 M
6:55 pm CDT NW 9.2 7.00 NULL -- 59.0 56.7 93% 57 NA 29.77 M
6:35 pm CDT NW 9.2 10.00 Overcast -- 58.0 56.3 93% 56 NA 29.76 M
5:55 pm CDT W 13.8 G 20.7 10.00 Overcast -- 59.0 56.3 92% 56 NA 29.77 M

Regional Weather Observation


Ft. Polk/Self Strip, LA (KDNK)

Light Rain
66.0 F

De Ridder, Beauregard Parish Airport, LA (KDRI)

Partly Cloudy
58.0 F

Ft. Polk - Peason Ridge, LA (KAQV)

Overcast
55.0 F

Natchitoches, Natchitoches Regional Airport, LA (KIER)

Overcast
54.0 F

Jasper, Jasper County-Bell Field Airport, TX (KJAS)

Overcast
60.0 F

Ft. Polk - Fullerton Landing Strip, LA (KBKB)

A Few Clouds
57.0 F